temp-mail.ru alexa rank chart, temp-mail.ru alexa rank daily changes

temp-mail.ru alexa rank chart, temp-mail.ru alexa rank daily changes

temp-mail.ru
Actual rank:
60 182

RANK HISTORY

Date Rank Diff
2016/12/06 60 182 -359
2016/12/05 60 541 +84
2016/12/04 60 457 +112
2016/12/02 60 345 -87
2016/12/01 60 432 -327
2016/11/30 60 759 +283
2016/11/29 60 476 -547
2016/11/28 61 023 -914
2016/11/27 61 937 -1 273
2016/11/26 63 210 -2 165
2016/11/25 65 375 -1 978
2016/11/24 67 353 -1 126
2016/11/23 68 479 -3 472
2016/11/19 71 951 -815
2016/11/18 72 766 -97
2016/11/17 72 863 +1 096
2016/11/16 71 767 +47
2016/11/15 71 720 -187
2016/11/14 71 907 -655
2016/11/13 72 562 -1 509
2016/11/12 74 071 -445
2016/11/11 74 516 +330
2016/11/10 74 186 -932
2016/11/09 75 118 -418
2016/11/08 75 536 -1 165
2016/11/07 76 701 -1 494
2016/11/06 78 195 -1 318
2016/11/05 79 513 -1 847
2016/11/04 81 360 -344
2016/11/03 81 704 +335
2016/11/02 81 369 +1 447
2016/11/01 79 922 -473
2016/10/31 80 395 -123
2016/10/30 80 518 -1 550
2016/10/29 82 068 +175
2016/10/28 81 893 +60
2016/10/27 81 833 +2 519
2016/10/26 79 314 +5 200
2016/10/25 74 114 +2 005
2016/10/24 72 109 +509
2016/10/23 71 600 +1 154
2016/10/22 70 446 -227
2016/10/21 70 673 -1 126
2016/10/20 71 799 -808
2016/10/19 72 607 +26
2016/10/18 72 581 +108
2016/10/17 72 473 -1 856
2016/10/16 74 329 -451
2016/10/15 74 780 +2 704
2016/10/14 72 076 -214
2016/10/13 72 290 -610
2016/10/12 72 900 +2 803
2016/10/11 70 097 +2 451
2016/10/10 67 646 +1 660
2016/10/09 65 986 +54
2016/10/08 65 932 -4 426
2016/10/07 70 358

WIDGET FOR YOUR SITE

DOMAINS WITH THE NEAREST RANK

Domain Rank
outsystems.com 60 177
ifun.de 60 178
jdpower.com 60 179
attitude.co.uk 60 180
cinemapress.ir 60 181
temp-mail.ru 60 182
topbithourly.com 60 183
idealo.co.uk 60 184
mdedge.com 60 185
7449.ws 60 186
unblock-us.com 60 187

DOMAINS WITH THE NEAREST RANK BY TLD .ru

Domain Rank
takiedela.ru 60 116
ovgorskiy.ru 60 157
naobzorah.ru 60 163
myjino.ru 60 167
win-rar.ru 60 170
temp-mail.ru 60 182
roboforex.ru 60 215
modsgaming.ru 60 260
doctorhead.ru 60 285
windowsfaq.ru 60 345
bmw.ru 60 348